Regional Weather Roundup
Issued by NWS

Home | Current Version | Previous Version | Text Only | Print | Product List | Glossary On
Versions: 1 2 3 4 5 6 7 8 9 10 11 12 13 14 15 16 17 18 19 20 21 22 23 24 25 26 27 28 29 30 31 32 33 34 35 36 37 38 39 40 41 42 43 44 45 46 47 48 49 50
000
ASUS43 KMPX 011010
RWRMN
WEATHER ROUNDUP FOR MINNESOTA
NATIONAL WEATHER SERVICE TWIN CITIES/CHANHASSEN MN
400 AM CST MON MAR 01 2021


NOTE: "FAIR" INDICATES FEW OR NO CLOUDS BELOW 12,000 FEET WITH NO
SIGNIFICANT WEATHER AND/OR OBSTRUCTIONS TO VISIBILITY. N/A MEANS
CURRENT SKY AND/OR WEATHER CONDITIONS ARE NOT AVAILABLE.

MNZ060>063-068>070-011100-
   Twin Cities Metro

CITY           SKY/WX    TMP DP  RH WIND       PRES   REMARKS
TWIN CITIES    LGT SNOW  19  16  88 N12       30.17R FOG     WCI   7
ST PAUL        LGT SNOW  20  15  81 N14       30.18R WCI   7
CRYSTAL        LGT SNOW  17  12  80 N8        30.17R WCI   7
BLAINE         LGT SNOW  18  14  86 N10       30.16R WCI   6
LAKEVILLE      LGT SNOW  18  16  93 N8        30.15R WCI   7
EDEN PRAIRIE   LGT SNOW  19  15  84 N7        30.15R FOG     WCI  10
SOUTH ST PAUL  LGT SNOW  20  17  87 N7        30.16R WCI  11
LAKE ELMO      LGT SNOW  18  14  86 MISG      30.16R
$$
MNZ001>005-007-008-013>017-022>024-027-028-011100-
   Northwest Minnesota

CITY           SKY/WX    TMP DP  RH WIND       PRES   REMARKS
BEMIDJI        CLEAR     -1  -7  75 N7        30.22R WCI -14
HALLOCK        CLEAR     -8 -17  65 CALM      30.35R
ROSEAU         CLEAR     -4 -20  45 N6        30.30R WCI -16
WARROAD        CLEAR     -9 -18  64 NW5       30.28R WCI -21
THIEF RVR FALL CLEAR     -5 -13  68 N6        30.29R WCI -18
CROOKSTON      CLEAR      0  -9  65 N8        30.33R WCI -15
FOSSTON        CLEAR     -4 -11  71 N8        30.26R WCI -19
DETROIT LAKES  CLEAR      3  -4  72 NW8       30.22R WCI -10
MOORHEAD       CLEAR      5  -8  56 N14       30.30R WCI -12
PARK RAPIDS    CLEAR      5  -2  72 N8        30.19R WCI  -8
MAHNOMEN       FAIR       2  -3  81 N8        30.25R WCI -12
$$
MNZ006-009>011-018-025>026-011100-
   North Central Minnesota

CITY           SKY/WX    TMP DP  RH WIND       PRES   REMARKS
BAUDETTE       CLEAR     -8 -17  64 NW9       30.25R WCI -25
FLAG ISLAND    CLEAR    -11 -18  70 NW6       30.27R WCI -25
INTL FALLS     CLEAR     -6 -16  61 NW7       30.21R WCI -20
WASKISH        CLEAR     -6 -17  59 N3        30.25R
BIG FORK       CLEAR     -2 -13  60 NW3       30.24R
GRAND RAPIDS   CLEAR      3  -5  69 NW13      30.19R WCI -14
CRANE LAKE     CLEAR     -4 -15  59 N8        30.22R WCI -19
ORR            CLEAR     -4 -17  54 NW8       30.15R WCI -19
COOK           CLEAR     -2 -13  60 NW5       30.16R WCI -12
WALKER         CLOUDY     3  -2  79 NW7       30.21R WCI  -9
$$
MNZ012-019>021-037-011100-
   Northeast Minnesota

CITY           SKY/WX    TMP DP  RH WIND       PRES   REMARKS
DULUTH         CLEAR      5  -5  63 NW15G22   30.10R WCI -13
ELY            CLEAR     -2 -15  55 NW7       30.11R WCI -16
HIBBING        CLEAR      1  -7  68 NW10      30.15R WCI -15
EVELETH        CLEAR      2  -7  64 NW9       30.14R WCI -12
DULUTH HARBOR  PTCLDY    10  -2  56 NW14      30.20R WCI  -5
TWO HARBORS    CLEAR      3  -8  60 W6        30.12R WCI  -8
SILVER BAY     CLEAR      1  -9  60 NW5       30.11R WCI  -8
GRAND MARAIS     N/A      4 -11  50 VRB5      30.12R WCI  -5
G MARAIS ARPRT CLEAR     -4 -15  59 NW12G20   29.96R WCI -22
$$
MNZ029>031-032-039>041-046>048-054>057-064-011100-
   West Central Minnesota

CITY           SKY/WX    TMP DP  RH WIND       PRES   REMARKS
FERGUS FALLS   PTCLDY     3   0  85 N5        30.21R WCI  -6
WHEATON        CLOUDY    10   5  79 N12       30.28R WCI  -4
MORRIS         PTCLDY    12   7  79 N12       30.23R WCI  -2
ALEXANDRIA     CLOUDY    11   7  84 N8        30.18R WCI  -1
ELBOW LAKE     CLOUDY     9   4  80 N8        30.23R WCI  -4
WADENA         PTCLDY     5   0  78 N7        30.20R WCI  -7
GLENWOOD       CLOUDY    12   9  85 N8        30.19R WCI   1
APPLETON       CLOUDY    18  12  79 N12       30.22R WCI   5
BENSON         CLOUDY    14  10  85 NE8       30.22R WCI   3
ORTONVILLE     FLURRIES  14  10  85 N15       30.23R WCI  -1
MADISON        CLOUDY    19  14  79 N18       30.23R WCI   4
WILLMAR        LGT SNOW  18  12  79 N13       30.22R WCI   4
$$
MNZ033>034-036-042>043-049>051-058-059-011100-
   Central Minnesota

CITY           SKY/WX    TMP DP  RH WIND       PRES   REMARKS
ST CLOUD       CLOUDY    14   9  80 N7        30.18R WCI   4
SAUK CENTRE      N/A     11   8  85 N8        30.18R WCI   0
PAYNESVILLE    FLURRIES  14  12  92 CALM      30.19R
AITKIN         PTCLDY     7   0  72 NW7       30.19R WCI  -5
PINE RIVER     PTCLDY     9   1  72 N6        30.22R WCI  -1
BRAINERD       PTCLDY     9   0  67 N13       30.19R WCI  -7
STAPLES        PTCLDY     9   1  72 N8        30.19R WCI  -4
LONG PRAIRIE   MOCLDY    10   7  85 N6        30.18R WCI   1
LITTLE FALLS   MOCLDY    14   7  73 NW6       30.19R WCI   5
CAMP RIPLEY    FLURRIES  13   8  80 N10       30.19R WCI   0
LITCHFIELD     LGT SNOW  18  16  93 N9        30.18R WCI   6
BUFFALO        LGT SNOW  15  12  85 MISG      30.19R
HUTCHINSON     LGT SNOW  19  17  90 N8        30.18R WCI   9
$$
MNZ037-044-045-052-053-011100-
   East Central Minnesota

CITY           SKY/WX    TMP DP  RH WIND       PRES   REMARKS
PRINCETON      FLURRIES  16  10  79 CALM      30.18R
MORA           MOCLDY    12   9  85 NW7       30.19R WCI   2
CAMBRIDGE      LGT SNOW  16   7  67 NW6       30.18R WCI   7
RUSH CITY      LGT SNOW  14  10  85 NW3       30.18R
MOOSE LAKE     PTCLDY    10   0  61 N7        30.16R WCI   0
HINCKLEY       PTSUNNY   14   3  62 CALM      30.16R
CLOQUET        PTCLDY     5  -2  72 NW7       30.12R WCI  -7
MCGREGOR       PTCLDY     9   1  72 NW8       30.18R WCI  -4
$$
MNZ071>073-080-081-089-090-097-098-011100-
   Southwest Minnesota

CITY           SKY/WX    TMP DP  RH WIND       PRES   REMARKS
MONTEVIDEO     LGT SNOW  18  12  79 NE14      30.21R WCI   4
GRANITE FALLS  LGT SNOW  20  16  85 N14       30.21R WCI   7
CANBY          FLURRIES  19  15  86 N13       30.21R WCI   5
MARSHALL       FLURRIES  19  15  84 N8        30.18R WCI   9
REDWOOD FALLS  CLOUDY    20  15  81 N8        30.16R WCI  10
OLIVIA         FLURRIES  18  16  93 N14       30.17R WCI   4
PIPESTONE        N/A     18  14  86 NE18      30.11R WCI   2
WINDOM         PTCLDY    19  18  93 NW7       30.11R WCI  10
WORTHINGTON    MOCLDY    23  19  86 W13       30.11R WCI  11
JACKSON        CLOUDY    25  21  86 W5        30.10R WCI  19
TRACY          CLOUDY    20  15  79 N18       30.15R WCI   5
SLAYTON        MOCLDY    22  17  82 N15       30.12R WCI   8
$$
MNZ065>067-074>077-082>085-091>093-011100-
   South Central Minnesota

CITY           SKY/WX    TMP DP  RH WIND       PRES   REMARKS
MANKATO        LGT SNOW  22  20  92 N17       30.14R FOG     WCI   8
NEW ULM        LGT SNOW  19  18  93 N10       30.16R WCI   8
ST JAMES       CLOUDY    25  21  86 N9        30.13R WCI  15
FAIRMONT       MOCLDY    23  20  88 W6        30.11R WCI  16
GLENCOE        LGT SNOW  19  16  90 N8        30.16R WCI   8
FARIBAULT      LGT SNOW  19  18  93 NW9       30.14R WCI   9
OWATONNA       LGT SNOW  19  18  93 N6        30.12R WCI  11
WASECA         LGT SNOW  21  19  93 NW5       30.13R WCI  15
ALBERT LEA     PTCLDY    19  18  93 CALM      30.10R
$$
MNZ078>079-086>088-094>096-011100-
   Southeast Minnesota

CITY           SKY/WX    TMP DP  RH WIND       PRES   REMARKS
ROCHESTER      CLOUDY    19  14  81 NW6       30.09R WCI  11
RED WING       LGT SNOW  19  18  93 NW5       30.15R VSB 1   WCI  13
STANTON        LGT SNOW  20  17  89 N10       30.14R WCI   9
DODGE CENTER   LGT SNOW  19  16  86 NW8       30.10R WCI   9
WINONA         PTCLDY    21  16  79 NW8       30.14R WCI  12
PRESTON        MOCLDY    19  15  85 NW6       30.10R WCI  10
$$
ABBREVIATIONS USED IN REMARKS
   TC - TEMPERATURES IN CELSIUS
  WCI - WIND CHILL INDEX
   HX - HEAT INDEX
  VSB - VISIBILITY
$$



USA.gov is the U.S. government's official web portal to all federal, state and local government web resources and services.